Miscellaneous Local Product
Issued by NWS Hastings, NE

Home | Current Version | Previous Version | Text Only | Print | Product List | Glossary Off
Versions: 1 2 3 4 5 6 7 8 9 10 11 12 13 14 15 16 17 18 19 20 21 22 23 24 25 26 27 28 29 30 31 32 33 34 35 36 37 38 39 40 41 42 43 44 45 46 47 48 49 50

000
AXUS43 KGID 210402
MISGRI

GID CWA HOURLY WEATHER ROUNDUP
NATIONAL WEATHER SERVICE HASTINGS NE
1100 PM CDT THU JUL 20 2017

NOTE: "FAIR" INDICATES FEW OR NO CLOUDS BELOW 12,000 FEET WITH NO
SIGNIFICANT WEATHER AND/OR OBSTRUCTIONS TO VISIBILITY.

...SOUTH CENTRAL NEBRASKA...

CITY           SKY/WX    TMP DP  RH WIND       PRES   REMARKS
GRAND ISLAND   CLEAR     83  76  79 SE12      29.89S HX  91
HASTINGS       CLEAR     84  72  67 SE10      29.91R
KEARNEY        CLEAR     78  75  90 SE8       29.89F
ORD            CLEAR     77  71  82 CALM      29.88F
YORK           CLEAR     82  75  78 SE9       29.90R
AURORA         CLEAR     80  77  91 SE7       29.89S
LEXINGTON      CLEAR     81  75  82 SE9       29.89F
HOLDREGE       CLEAR     78  74  86 SE7       29.90S
HEBRON         CLEAR     88  66  48 S13       29.90R HX  90

...NEBRASKA PANHANDLE...

CITY           SKY/WX    TMP DP  RH WIND       PRES   REMARKS
CHADRON        PTCLDY    83  60  45 S12       29.91R
ALLIANCE       PTCLDY    76  61  59 CALM      29.98R
SCOTTSBLUFF    PTCLDY    79  61  53 SE6       29.98R
SIDNEY         PTCLDY    75  62  64 S7        30.03R

...WESTERN AND NORTH CENTRAL NEBRASKA...

CITY           SKY/WX    TMP DP  RH WIND       PRES   REMARKS
VALENTINE      CLEAR     81  63  54 E6        29.93R
AINSWORTH      CLEAR     77  73  88 SE7       29.94S
ONEILL         CLEAR     77  76  98 E7        29.92S
BROKEN BOW     CLEAR     79  75  87 SE7       29.91S
IMPERIAL       PTCLDY    81  67  62 W5        29.92S
NORTH PLATTE   CLEAR     79  75  87 E10       29.89F
MCCOOK         CLEAR     84  62  47 S9        29.88R

...EASTERN NEBRASKA...

CITY           SKY/WX    TMP DP  RH WIND       PRES   REMARKS
NORFOLK        CLEAR     77  68  73 SE7       29.89F
SO SIOUX CITY  CLEAR     74  69  85 SE5       29.90F
TEKAMAH        PTCLDY    78  70  76 S3        29.89S
COLUMBUS       CLEAR     80  76  87 E7        29.90R
ALBION         CLEAR     79  74  85 E5        29.91S
OMAHA EPPLEY   CLOUDY    87  76  69 SE9       29.88F HX  97
OFFUTT AFB     CLEAR     83  77  81 E5        29.88F HX  93
MILLARD        CLOUDY    88  80  78 SE5       29.89F HX 104
LINCOLN        CLEAR     85  71  63 S8        29.89S HX  90
NEBRASKA CITY  CLEAR     83  78  83 S9        29.90F HX  93
BEATRICE       CLEAR     86  72  62 SE9       29.90S HX  91
FALLS CITY     CLEAR     85  74  69 S9        29.90S HX  92

...NORTHERN KANSAS...

CITY           SKY/WX    TMP DP  RH WIND       PRES   REMARKS
GOODLAND       CLEAR     82  64  54 SW7       29.97R
HILL CITY      CLEAR     86  59  39 S8        29.89S
NORTON         CLEAR     86  52  30 SE10      29.88
PHILLIPSBURG   CLEAR     84  57  39 SE8       29.88S
SMITH CENTER   CLEAR     81  61  50 SE8       29.89R
HAYS           CLEAR     86  61  42 S12       29.91R
RUSSELL        CLEAR     87  61  41 S15       29.90R
CONCORDIA      CLEAR     88  66  48 S16       29.90R HX  90
SALINA         CLEAR     91  64  40 S16       29.90S HX  92
TOPEKA         CLEAR     87  75  67 S10       29.94R HX  96



USA.gov is the U.S. government's official web portal to all federal, state and local government web resources and services.